Weather History for Eagle River, WI

Change the Weather History Date:

Tuesday, April 9, 2013

  Actual Average Record
Temperature  
Mean Temperature 30 °F -  
Max Temperature 33 °F 42 °F 66 °F (2005)
Min Temperature 28 °F 24 °F 5 °F (1997)
Degree Days  
Heating Degree Days 34    
Moisture  
Dew Point 29 °F    
Average Humidity 87    
Maximum Humidity 100    
Minimum Humidity 52    
Precipitation  
Precipitation 0.00 in - - ()
Sea Level Pressure  
Sea Level Pressure 30.06 in    
Wind  
Wind Speed 5 mph (NNE)    
Max Wind Speed 17 mph    
Max Gust Speed 22 mph    
Visibility 7 miles    
Events Fog , Rain , Snow    
Averages and records for this station are not official NWS values.
T = Trace of Precipitation, MM = Missing Value Source: NWS Daily Summary

Daily Weather History Graph

Daily Weather History Graph

Search for Another Location

Airport:

Trip Planner

Search our weather history database for the weather conditions in past years. The results will help you decide how hot, cold, wet, or windy it might be!

Date:

Astronomy

Apr. 09, 2013 Rise Set
Actual Time 6:21 AM CDT 7:36 PM CDT
Civil Twilight 5:50 AM CDT 8:07 PM CDT
Nautical Twilight 5:13 AM CDT 8:44 PM CDT
Astronomical Twilight 4:34 AM CDT 9:23 PM CDT
Moon 5:45 AM CDT (4/9) 7:12 PM CDT (4/9)
Length of Visible Light 14h 16m
Length of Day
13h 15m
Waning Crescent, 1% of the Moon is Illuminated
Apr 9
Waning Crescent
Apr 10
New
Apr 18
First Quarter
Apr 25
Full
May 2
Last Quarter

Hourly Weather History & Observations

Time (CDT) Temp. Windchill Dew Point Humidity Pressure Visibility Wind Dir Wind Speed Gust Speed Precip Events Conditions
12:15 AM 33.8 °F - 33.8 °F 100% 29.99 in 0.2 mi Calm Calm - N/A Fog Fog
12:35 AM 33.8 °F - 33.8 °F 100% 30.01 in 0.2 mi Calm Calm - N/A Fog Fog
12:55 AM 33.8 °F - 33.8 °F 100% 30.00 in 0.5 mi Calm Calm - N/A Fog Fog
1:15 AM 33.8 °F - 33.8 °F 100% 30.02 in 0.5 mi Calm Calm - N/A Fog Fog
1:35 AM 33.8 °F - 33.8 °F 100% 30.02 in 0.5 mi Calm Calm - N/A Fog Fog
1:55 AM 33.8 °F - 33.8 °F 100% 30.01 in 0.5 mi Calm Calm - N/A Fog Fog
2:15 AM 33.8 °F - 33.8 °F 100% 30.00 in 0.5 mi Calm Calm - N/A Fog Fog
2:35 AM 33.8 °F 30.8 °F 33.8 °F 100% 30.01 in 0.5 mi WNW 3.5 mph - N/A Fog Fog
2:55 AM 33.8 °F - 33.8 °F 100% 30.01 in 0.5 mi Calm Calm - N/A Fog Fog
3:15 AM 33.8 °F 30.8 °F 33.8 °F 100% 30.00 in 0.5 mi North 3.5 mph - N/A Fog Fog
3:35 AM 33.8 °F 30.8 °F 33.8 °F 100% 29.99 in 0.8 mi North 3.5 mph - N/A   Overcast
3:55 AM 33.8 °F 30.8 °F 33.8 °F 100% 29.99 in 0.5 mi North 3.5 mph - N/A Fog Fog
4:15 AM 33.8 °F 30.8 °F 33.8 °F 100% 29.99 in 0.5 mi North 3.5 mph - N/A Fog Fog
4:35 AM 33.8 °F - 33.8 °F 100% 30.01 in 1.2 mi Calm Calm - N/A   Overcast
4:55 AM 33.8 °F 30.8 °F 33.8 °F 100% 30.01 in 10.0 mi North 3.5 mph - N/A   Overcast
5:15 AM 33.8 °F 30.8 °F 33.8 °F 100% 30.04 in 10.0 mi North 3.5 mph - N/A   Overcast
5:35 AM 33.8 °F - 33.8 °F 100% 30.05 in 10.0 mi Calm Calm - N/A   Overcast
5:55 AM 33.8 °F - 33.8 °F 100% 30.04 in 10.0 mi Calm Calm - N/A   Overcast
6:15 AM 33.8 °F 30.8 °F 33.8 °F 100% 30.04 in 5.0 mi North 3.5 mph - N/A   Overcast
6:35 AM 32.0 °F 27.5 °F 32.0 °F 100% 30.04 in 4.0 mi NNE 4.6 mph - N/A   Overcast
6:55 AM 32.0 °F 26.4 °F 32.0 °F 100% 30.04 in 1.2 mi NNE 5.8 mph - N/A   Overcast
7:15 AM 32.0 °F 27.5 °F 32.0 °F 100% 30.05 in 5.0 mi North 4.6 mph - N/A   Overcast
7:35 AM 32.0 °F 28.7 °F 32.0 °F 100% 30.05 in 5.0 mi North 3.5 mph - N/A   Overcast
7:55 AM 32.0 °F 27.5 °F 32.0 °F 100% 30.05 in 10.0 mi North 4.6 mph - N/A   Overcast
8:15 AM 33.8 °F 27.7 °F 33.8 °F 100% 30.04 in 10.0 mi North 6.9 mph - N/A   Overcast
8:35 AM 33.8 °F 29.6 °F 33.8 °F 100% 30.04 in 10.0 mi North 4.6 mph - N/A   Overcast
8:55 AM 33.8 °F 27.7 °F 33.8 °F 100% 30.05 in 10.0 mi NNE 6.9 mph - N/A   Overcast
9:15 AM 33.8 °F 27.0 °F 33.8 °F 100% 30.05 in 10.0 mi NNE 8.1 mph - N/A   Overcast
9:35 AM 33.8 °F 25.8 °F 33.8 °F 100% 30.06 in 10.0 mi NNE 10.4 mph - N/A   Overcast
9:55 AM 33.8 °F 27.0 °F 33.8 °F 100% 30.06 in 10.0 mi NE 8.1 mph - N/A   Overcast
10:15 AM 33.8 °F 27.0 °F 33.8 °F 100% 30.06 in 10.0 mi NNE 8.1 mph - N/A   Overcast
10:35 AM 33.8 °F 25.8 °F 33.8 °F 100% 30.06 in 10.0 mi NNE 10.4 mph - N/A   Overcast
10:55 AM 33.8 °F 25.3 °F 33.8 °F 100% 30.06 in 10.0 mi NNE 11.5 mph - N/A   Overcast
11:15 AM 33.8 °F 24.3 °F 33.8 °F 100% 30.04 in 10.0 mi NNE 13.8 mph 18.4 mph N/A   Overcast
11:35 AM 33.8 °F 24.8 °F 33.8 °F 100% 30.05 in 10.0 mi NNE 12.7 mph 17.3 mph N/A   Overcast
11:55 AM 33.8 °F 24.8 °F 33.8 °F 100% 30.05 in 10.0 mi NNE 12.7 mph 17.3 mph N/A   Overcast
12:15 PM 33.8 °F 24.8 °F 33.8 °F 100% 30.06 in 10.0 mi NNE 12.7 mph - N/A   Overcast
12:35 PM 33.8 °F 25.8 °F 33.8 °F 100% 30.06 in 10.0 mi NNE 10.4 mph - N/A   Overcast
12:55 PM 33.8 °F 23.9 °F 32.0 °F 93% 30.06 in 7.0 mi NNE 15.0 mph - N/A   Light Drizzle
1:15 PM 33.8 °F 25.3 °F 32.0 °F 93% 30.06 in 4.0 mi NNE 11.5 mph 20.7 mph N/A Snow Light Snow
1:35 PM 32.0 °F 23.0 °F 32.0 °F 100% 30.06 in 4.0 mi NE 11.5 mph - N/A Snow Light Snow
1:55 PM 33.8 °F 25.8 °F 32.0 °F 93% 30.07 in 5.0 mi NNE 10.4 mph - N/A Snow Light Snow
2:15 PM 33.8 °F 25.3 °F 32.0 °F 93% 30.08 in 7.0 mi NE 11.5 mph - N/A Rain Rain
3:15 PM 33.8 °F 27.0 °F 32.0 °F 93% 30.08 in 10.0 mi NE 8.1 mph - N/A   Light Drizzle
3:35 PM 33.8 °F 23.9 °F 28.4 °F 81% 30.07 in 10.0 mi NE 15.0 mph 20.7 mph N/A   Overcast
3:55 PM 33.8 °F 23.9 °F 28.4 °F 81% 30.08 in 10.0 mi NE 15.0 mph 20.7 mph N/A   Overcast
4:15 PM 33.8 °F 23.2 °F 26.6 °F 75% 30.08 in 10.0 mi NE 17.3 mph 21.9 mph N/A   Overcast
4:35 PM 33.8 °F 25.3 °F 26.6 °F 75% 30.09 in 10.0 mi NE 11.5 mph - N/A   Overcast
4:55 PM 33.8 °F 23.5 °F 26.6 °F 75% 30.08 in 10.0 mi NE 16.1 mph 21.9 mph N/A   Overcast
5:15 PM 33.8 °F 24.8 °F 23.0 °F 65% 30.09 in 10.0 mi NE 12.7 mph - N/A   Overcast
5:35 PM 33.8 °F 24.8 °F 23.0 °F 65% 30.09 in 10.0 mi ENE 12.7 mph - N/A   Overcast
5:55 PM 33.8 °F 24.8 °F 21.2 °F 60% 30.09 in 10.0 mi NE 12.7 mph 20.7 mph N/A   Overcast
6:15 PM 33.8 °F 23.9 °F 19.4 °F 56% 30.10 in 10.0 mi NE 15.0 mph 19.6 mph N/A   Overcast
6:35 PM 33.8 °F 26.4 °F 17.6 °F 52% 30.10 in 10.0 mi ENE 9.2 mph - N/A   Overcast
6:55 PM 32.0 °F 23.6 °F 17.6 °F 55% 30.11 in 10.0 mi ENE 10.4 mph 16.1 mph N/A   Scattered Clouds
7:15 PM 32.0 °F 23.6 °F 19.4 °F 60% 30.11 in 10.0 mi ENE 10.4 mph - N/A   Clear
7:35 PM 32.0 °F 23.6 °F 19.4 °F 60% 30.11 in 10.0 mi NE 10.4 mph - N/A   Clear
7:55 PM 32.0 °F 22.5 °F 21.2 °F 64% 30.13 in 10.0 mi NE 12.7 mph - N/A   Clear
8:15 PM 32.0 °F 24.8 °F 21.2 °F 64% 30.14 in 10.0 mi NNE 8.1 mph - N/A   Scattered Clouds
8:35 PM 32.0 °F 25.6 °F 21.2 °F 64% 30.15 in 10.0 mi NNE 6.9 mph - N/A   Mostly Cloudy
8:55 PM 30.2 °F 20.8 °F 19.4 °F 64% 30.13 in 10.0 mi NE 11.5 mph - N/A   Mostly Cloudy
9:15 PM 30.2 °F 20.8 °F 17.6 °F 60% 30.12 in 10.0 mi NNE 11.5 mph - N/A   Clear
9:35 PM 30.2 °F 20.8 °F 17.6 °F 60% 30.12 in 10.0 mi NE 11.5 mph 18.4 mph N/A   Clear
9:55 PM 30.2 °F 18.9 °F 19.4 °F 64% 30.11 in 10.0 mi NE 16.1 mph 21.9 mph N/A   Clear
10:15 PM 28.4 °F 18.0 °F 19.4 °F 69% 30.12 in 10.0 mi ENE 12.7 mph 18.4 mph N/A   Clear
10:35 PM 28.4 °F 21.2 °F 19.4 °F 69% 30.11 in 10.0 mi NE 6.9 mph - N/A   Clear
10:55 PM 28.4 °F 18.5 °F 19.4 °F 69% 30.12 in 10.0 mi ENE 11.5 mph - N/A   Scattered Clouds
11:15 PM 28.4 °F 17.5 °F 19.4 °F 69% 30.09 in 10.0 mi NE 13.8 mph 20.7 mph N/A   Scattered Clouds
11:35 PM 28.4 °F 18.0 °F 19.4 °F 69% 30.09 in 10.0 mi ENE 12.7 mph 20.7 mph N/A   Clear
11:55 PM 28.4 °F 18.0 °F 19.4 °F 69% 30.09 in 10.0 mi NE 12.7 mph 18.4 mph N/A   Clear